This is the latest recevied weather packets stored in our database for station/object N4JTC. If no packets are shown the sender has not sent any weather packets the latest 10 day(s).
| Time | Temp. | Humidity | Pressure | Rain* | Wind** | Luminosity | Snow |
|---|---|---|---|---|---|---|---|
| 1777903203 | 22.22° C | 49% | 1019.3 hPa | 0 mm | - | 530 W/m² | - |
| 1777902903 | 22.22° C | 51% | 1019.2 hPa | 0 mm | - | 505 W/m² | - |
| 1777902603 | 21.67° C | 49% | 1019.2 hPa | 0 mm | - | 384 W/m² | - |
| 1777902303 | 21.67° C | 50% | 1019.3 hPa | 0 mm | - | 440 W/m² | - |
| 1777901703 | 21.11° C | 52% | 1019.5 hPa | 0 mm | - | 390 W/m² | - |
| 1777901403 | 20.56° C | 53% | 1019.2 hPa | 0 mm | - | 339 W/m² | - |
| 1777901103 | 20.56° C | 52% | 1019.4 hPa | 0 mm | - | 349 W/m² | - |
| 1777900803 | 20° C | 55% | 1019.4 hPa | 0 mm | - | 332 W/m² | - |
| 1777900503 | 20° C | 56% | 1019.2 hPa | 0 mm | - | 302 W/m² | - |
| 1777900202 | 19.44° C | 57% | 1019.1 hPa | 0 mm | - | 275 W/m² | - |
| 1777899903 | 19.44° C | 56% | 1019.1 hPa | 0 mm | - | 267 W/m² | - |
| 1777899603 | 18.33° C | 59% | 1019.2 hPa | 0 mm | - | 242 W/m² | - |
| 1777899303 | 18.33° C | 59% | 1018.8 hPa | 0 mm | - | 235 W/m² | - |
| 1777899002 | 17.78° C | 60% | 1019 hPa | 0 mm | - | 202 W/m² | - |
| 1777898703 | 17.78° C | 60% | 1018.9 hPa | 0 mm | - | 192 W/m² | - |
| 1777898403 | 17.78° C | 60% | 1019.1 hPa | 0 mm | - | 178 W/m² | - |
| 1777898103 | 17.22° C | 62% | 1018.8 hPa | 0 mm | - | 159 W/m² | - |
| 1777897803 | 17.22° C | 63% | 1018.8 hPa | 0 mm | - | 144 W/m² | - |
| 1777897503 | 16.67° C | 65% | 1018.8 hPa | 0 mm | - | 124 W/m² | - |
| 1777897203 | 16.67° C | 64% | 1018.9 hPa | 0 mm | - | 112 W/m² | - |
| 1777896903 | 16.11° C | 65% | 1019 hPa | 0 mm | - | 96 W/m² | - |
| 1777896603 | 15.56° C | 65% | 1018.8 hPa | 0 mm | - | 78 W/m² | - |
| 1777896303 | 15.56° C | 66% | 1018.8 hPa | 0 mm | - | 75 W/m² | - |
| 1777896003 | 15° C | 67% | 1018.5 hPa | 0 mm | - | 58 W/m² | - |
| 1777895703 | 15° C | 67% | 1018.9 hPa | 0 mm | - | 44 W/m² | - |
* Rain latest hour (hover to see other rain measurements)
** Current wind speed in m/s (hover to see current wind gust speed)